This is the latest recevied weather packets stored in our database for station/object KI4MRC. If no packets are shown the sender has not sent any weather packets the latest 10 day(s).
| Time | Temp. | Humidity | Pressure | Rain* | Wind** | Luminosity | Snow |
|---|---|---|---|---|---|---|---|
| 1777808666 | 21.67° C | 96% | 1014.8 hPa | 0 mm | - | 17 W/m² | - |
| 1777808362 | 21.67° C | 96% | 1014.7 hPa | 0 mm | - | 22 W/m² | - |
| 1777808061 | 21.67° C | 96% | 1014.4 hPa | 0 mm | - | 22 W/m² | - |
| 1777807758 | 21.67° C | 95% | 1014.3 hPa | 0 mm | - | 20 W/m² | - |
| 1777807456 | 21.67° C | 95% | 1014.3 hPa | 0.51 mm | - | 18 W/m² | - |
| 1777807151 | 21.67° C | 95% | 1014.2 hPa | 0.51 mm | - | 11 W/m² | - |
| 1777806849 | 21.67° C | 94% | 1014.1 hPa | 3.56 mm | - | 10 W/m² | - |
| 1777806545 | 21.67° C | 93% | 1014.2 hPa | 6.1 mm | - | 8 W/m² | - |
| 1777806241 | 21.67° C | 92% | 1014 hPa | 3.56 mm | - | 4 W/m² | - |
| 1777805938 | 22.22° C | 92% | 1014.2 hPa | 3.05 mm | - | 2 W/m² | - |
| 1777805635 | 22.22° C | 91% | 1014.3 hPa | 3.05 mm | - | 2 W/m² | - |
| 1777805333 | 22.22° C | 90% | 1014 hPa | 0 mm | - | 1 W/m² | - |
| 1777805030 | 22.78° C | 92% | 1014 hPa | 0 mm | - | 1 W/m² | - |
| 1777804727 | 22.78° C | 92% | 1013.8 hPa | 0 mm | - | 1 W/m² | - |
| 1777804425 | 22.78° C | 92% | 1013.5 hPa | 0 mm | - | 0 W/m² | - |
| 1777804122 | 22.78° C | 91% | 1013.6 hPa | 0 mm | - | 0 W/m² | - |
| 1777803819 | 22.78° C | 91% | 1013.6 hPa | 0 mm | - | 0 W/m² | - |
| 1777803514 | 22.78° C | 90% | 1013.6 hPa | 0.51 mm | - | 0 W/m² | - |
| 1777803212 | 23.33° C | 89% | 1013.5 hPa | 0.51 mm | - | 0 W/m² | - |
| 1777802909 | 23.33° C | 87% | 1013.4 hPa | 0.51 mm | - | 0 W/m² | - |
| 1777802607 | 23.33° C | 87% | 1013.4 hPa | 0 mm | - | 0 W/m² | - |
| 1777802304 | 23.33° C | 87% | 1013.3 hPa | 0 mm | - | 0 W/m² | - |
| 1777802003 | 23.33° C | 87% | 1013.2 hPa | 0 mm | - | 0 W/m² | - |
| 1777801700 | 23.33° C | 87% | 1013.2 hPa | 0 mm | - | 0 W/m² | - |
| 1777801397 | 23.33° C | 88% | 1013.3 hPa | 0 mm | - | 0 W/m² | - |
* Rain latest hour (hover to see other rain measurements)
** Current wind speed in m/s (hover to see current wind gust speed)